timestamp,surface_pressure_avg,surface_temp_avg,battery_voltage,lat,long
2023-04-30 00:09:00+00:00,240.3298,1.7,13.05,47.84626,-54.09684
2023-04-30 00:19:00+00:00,241.5014,1.63,12.81,47.84626,-54.09684
2023-04-30 00:29:00+00:00,242.0098,1.6,12.81,47.84626,-54.09684
2023-04-30 00:39:00+00:00,239.0964,1.6,12.81,47.84626,-54.09684
2023-04-30 00:49:00+00:00,237.8698,1.6,12.81,47.84626,-54.09684
2023-04-30 00:59:00+00:00,238.9098,1.6,12.81,47.84626,-54.09684
2023-04-30 01:09:00+00:00,236.7814,1.6,12.81,47.84626,-54.09684
2023-04-30 01:19:00+00:00,231.613,1.57,12.73,47.84626,-54.09684
2023-04-30 01:29:00+00:00,230.9164,1.5,12.73,47.84626,-54.09684
2023-04-30 01:39:00+00:00,233.7714,1.42,12.73,47.84626,-54.09684
2023-04-30 01:49:00+00:00,232.8164,1.45,12.73,47.84626,-54.09684
2023-04-30 01:59:00+00:00,231.2614,1.42,12.73,47.84626,-54.09684
2023-04-30 02:09:00+00:00,233.2114,1.4,12.73,47.84626,-54.09684
2023-04-30 02:19:00+00:00,235.7681,1.4,12.73,47.84626,-54.09684
2023-04-30 02:29:00+00:00,236.4248,1.4,12.73,47.84626,-54.09684
2023-04-30 02:39:00+00:00,238.6214,1.4,12.73,47.84626,-54.09684
2023-04-30 02:49:00+00:00,241.288,1.4,12.73,47.84626,-54.09684
2023-04-30 02:59:00+00:00,241.5964,1.4,12.73,47.84626,-54.09684
2023-04-30 03:09:00+00:00,242.498,1.4,12.73,47.84626,-54.09684
2023-04-30 03:19:00+00:00,245.6564,1.3,12.73,47.84626,-54.09684
2023-04-30 03:29:00+00:00,248.7247,1.3,12.73,47.84626,-54.09684
2023-04-30 03:39:00+00:00,251.7347,1.3,12.73,47.84626,-54.09684
2023-04-30 03:49:00+00:00,253.3047,1.28,12.73,47.84626,-54.09684
2023-04-30 03:59:00+00:00,253.7897,1.24,12.73,47.84626,-54.09684
2023-04-30 04:09:00+00:00,256.4014,1.2,12.73,47.84626,-54.09684
2023-04-30 04:19:01+00:00,260.2598,1.2,12.65,47.84626,-54.09684
2023-04-30 04:29:01+00:00,260.3731,1.2,12.65,47.84626,-54.09684
2023-04-30 04:39:01+00:00,261.8231,1.2,12.65,47.84626,-54.09684
2023-04-30 04:49:01+00:00,266.4781,1.2,12.65,47.84626,-54.09684
2023-04-30 04:59:01+00:00,271.1031,1.2,12.65,47.84626,-54.09684
2023-04-30 05:09:01+00:00,274.9598,1.2,12.65,47.84626,-54.09684
2023-04-30 05:19:00+00:00,281.7364,1.09,12.65,47.84626,-54.09684
2023-04-30 05:29:00+00:00,284.223,1.09,12.65,47.84626,-54.09684
2023-04-30 05:39:00+00:00,288.0231,1.09,12.65,47.84626,-54.09684
2023-04-30 05:49:00+00:00,294.0347,1.09,12.65,47.84626,-54.09684
2023-04-30 05:59:00+00:00,298.188,1.07,12.65,47.84626,-54.09684
2023-04-30 06:09:00+00:00,296.8446,1.06,12.65,47.84626,-54.09684
2023-04-30 06:19:00+00:00,299.778,1.06,12.65,47.84626,-54.09684
2023-04-30 06:29:00+00:00,302.9364,1.06,12.65,47.84626,-54.09684
2023-04-30 06:39:00+00:00,302.7764,1.06,12.65,47.84626,-54.09684
2023-04-30 06:49:00+00:00,300.4232,1.05,12.65,47.84626,-54.09684
2023-04-30 06:59:00+00:00,303.9014,1.05,12.65,47.84626,-54.09684
2023-04-30 07:09:00+00:00,307.6046,1.05,12.65,47.84626,-54.09684
2023-04-30 07:19:00+00:00,309.0914,1.06,12.57,47.84626,-54.09684
2023-04-30 07:29:00+00:00,310.6131,1.06,12.57,47.84626,-54.09684
2023-04-30 07:39:00+00:00,314.4529,1.05,12.57,47.84626,-54.09684
2023-04-30 07:49:00+00:00,315.3413,1.01,12.57,47.84626,-54.09684
2023-04-30 07:59:00+00:00,313.7497,1.0,12.57,47.84626,-54.09684
2023-04-30 08:09:00+00:00,312.788,1.0,12.57,47.84626,-54.09684
2023-04-30 08:19:00+00:00,314.0714,1.0,12.57,47.84626,-54.09684
2023-04-30 08:29:00+00:00,313.7031,1.0,12.57,47.84626,-54.09684
2023-04-30 08:39:00+00:00,312.7264,1.0,12.57,47.84626,-54.09684
2023-04-30 08:49:00+00:00,312.5897,1.0,12.57,47.84626,-54.09684
2023-04-30 08:59:00+00:00,311.1846,1.0,12.57,47.84626,-54.09684
2023-04-30 09:09:00+00:00,310.7747,1.0,12.57,47.84626,-54.09684
2023-04-30 09:19:00+00:00,310.0247,1.0,12.57,47.84626,-54.09684
2023-04-30 09:29:00+00:00,308.64799999999997,1.0,12.57,47.84626,-54.09684
2023-04-30 09:39:00+00:00,305.5447,1.0,12.57,47.84626,-54.09684
2023-04-30 09:49:00+00:00,303.8047,1.0,12.57,47.84626,-54.09684
2023-04-30 09:59:00+00:00,298.0113,1.0,12.57,47.84626,-54.09684
2023-04-30 10:09:00+00:00,289.6381,0.99,12.57,47.84626,-54.09684
2023-04-30 10:19:00+00:00,284.348,1.0,12.81,47.84626,-54.09684
2023-04-30 10:29:00+00:00,280.3197,1.0,12.81,47.84626,-54.09684
2023-04-30 10:39:00+00:00,276.5964,1.0,12.81,47.84626,-54.09684
2023-04-30 10:49:00+00:00,271.8881,1.0,12.81,47.84626,-54.09684
2023-04-30 10:59:00+00:00,270.328,1.0,12.81,47.84626,-54.09684
2023-04-30 11:09:00+00:00,266.6631,1.0,12.81,47.84626,-54.09684
2023-04-30 11:19:00+00:00,261.2931,1.01,14.24,47.84626,-54.09684
2023-04-30 11:29:00+00:00,254.1464,1.08,14.24,47.84626,-54.09684
2023-04-30 11:39:00+00:00,251.3148,1.1,14.24,47.84626,-54.09684
2023-04-30 11:49:00+00:00,253.083,1.1,14.24,47.84626,-54.09684
2023-04-30 11:59:00+00:00,254.1697,1.1,14.24,47.84626,-54.09684
2023-04-30 12:09:00+00:00,251.9764,1.1,14.24,47.84626,-54.09684
2023-04-30 12:19:00+00:00,245.9447,1.16,14.32,47.84626,-54.09684
2023-04-30 12:29:00+00:00,241.5681,1.19,14.32,47.84626,-54.09684
2023-04-30 12:39:00+00:00,241.5565,1.15,14.32,47.84626,-54.09684
2023-04-30 12:49:00+00:00,242.3414,1.18,14.32,47.84626,-54.09684
2023-04-30 12:59:00+00:00,239.5931,1.2,14.32,47.84626,-54.09684
2023-04-30 13:09:00+00:00,238.2231,1.25,14.32,47.84626,-54.09684
2023-04-30 13:19:00+00:00,234.993,1.27,14.32,47.84626,-54.09684
2023-04-30 13:29:00+00:00,231.2747,1.3,14.32,47.84626,-54.09684
2023-04-30 13:39:00+00:00,228.0331,1.39,14.32,47.84626,-54.09684
2023-04-30 13:49:00+00:00,224.1414,1.47,14.32,47.84626,-54.09684
2023-04-30 13:59:00+00:00,221.0631,1.62,14.32,47.84626,-54.09684
2023-04-30 14:09:00+00:00,223.1031,1.7,14.32,47.84626,-54.09684
2023-04-30 14:19:00+00:00,225.5431,1.7,14.24,47.84626,-54.09684
2023-04-30 14:29:00+00:00,224.4464,1.8,14.24,47.84626,-54.09684
2023-04-30 14:39:00+00:00,225.6631,1.8,14.24,47.84626,-54.09684
2023-04-30 14:49:00+00:00,222.5731,1.9,14.24,47.84626,-54.09684
2023-04-30 14:59:00+00:00,218.6831,1.99,14.24,47.84626,-54.09684
2023-04-30 15:09:00+00:00,220.8881,1.9,14.24,47.84626,-54.09684
2023-04-30 15:19:00+00:00,225.5098,1.9,14.24,47.84626,-54.09684
2023-04-30 15:29:00+00:00,228.6147,1.8,14.24,47.84626,-54.09684
2023-04-30 15:39:00+00:00,228.0531,2.06,14.24,47.84626,-54.09684
2023-04-30 15:49:00+00:00,229.1165,2.1,14.24,47.84626,-54.09684
2023-04-30 15:59:00+00:00,230.8998,1.95,14.24,47.84626,-54.09684
2023-04-30 16:09:00+00:00,234.1765,1.9,14.24,47.84626,-54.09684
2023-04-30 16:19:00+00:00,237.4697,1.9,14.16,47.84626,-54.09684
2023-04-30 16:29:00+00:00,241.8831,2.0,14.16,47.84626,-54.09684
2023-04-30 16:39:00+00:00,249.3448,2.1,14.16,47.84626,-54.09684
2023-04-30 16:49:00+00:00,250.6231,2.0,14.16,47.84626,-54.09684
2023-04-30 16:59:00+00:00,250.7781,2.15,14.16,47.84626,-54.09684
2023-04-30 17:09:00+00:00,252.4831,2.2,14.16,47.84626,-54.09684
2023-04-30 17:19:00+00:00,259.0597,1.7,14.0,47.84626,-54.09684
2023-04-30 17:29:00+00:00,265.4298,1.63,14.0,47.84626,-54.09684
2023-04-30 17:39:00+00:00,270.0581,2.27,14.0,47.84626,-54.09684
2023-04-30 17:49:00+00:00,274.5331,2.2,14.0,47.84626,-54.09684
2023-04-30 17:59:00+00:00,278.1931,2.18,14.0,47.84626,-54.09684
2023-04-30 18:09:00+00:00,281.0714,1.63,14.0,47.84626,-54.09684
2023-04-30 18:19:00+00:00,281.1731,1.97,13.84,47.84626,-54.09684
2023-04-30 18:29:00+00:00,284.0464,2.15,13.84,47.84626,-54.09684
2023-04-30 18:39:00+00:00,289.1514,2.0,13.84,47.84626,-54.09684
2023-04-30 18:49:00+00:00,292.1863,2.17,13.84,47.84626,-54.09684
2023-04-30 18:59:00+00:00,290.7565,2.28,13.84,47.84626,-54.09684
2023-04-30 19:09:00+00:00,295.2247,2.2,13.84,47.84626,-54.09684
2023-04-30 19:19:00+00:00,303.6047,2.1,13.6,47.84626,-54.09684
2023-04-30 19:29:00+00:00,304.58799999999997,2.05,13.6,47.84626,-54.09684
2023-04-30 19:39:00+00:00,301.998,2.2,13.6,47.84626,-54.09684
2023-04-30 19:49:00+00:00,305.7997,2.24,13.6,47.84626,-54.09684
2023-04-30 19:59:00+00:00,309.5247,2.2,13.6,47.84626,-54.09684
2023-04-30 20:09:00+00:00,303.4748,2.3,13.6,47.84626,-54.09684
2023-04-30 20:19:00+00:00,299.0763,2.35,13.53,47.84626,-54.09684
2023-04-30 20:29:00+00:00,300.8297,2.3,13.53,47.84626,-54.09684
2023-04-30 20:39:00+00:00,304.8929,2.2,13.53,47.84626,-54.09684
2023-04-30 20:49:00+00:00,304.358,2.2,13.53,47.84626,-54.09684
2023-04-30 20:59:00+00:00,305.0364,2.2,13.53,47.84626,-54.09684
2023-04-30 21:09:00+00:00,306.9097,2.2,13.53,47.84626,-54.09684
2023-04-30 21:19:00+00:00,307.9097,2.29,13.37,47.84626,-54.09684
2023-04-30 21:29:00+00:00,301.1014,2.39,13.37,47.84626,-54.09684
2023-04-30 21:39:00+00:00,297.2414,2.4,13.37,47.84626,-54.09684
2023-04-30 21:49:00+00:00,297.3447,2.3,13.37,47.84626,-54.09684
2023-04-30 21:59:00+00:00,296.433,2.2,13.37,47.84626,-54.09684
2023-04-30 22:09:00+00:00,289.0014,2.27,13.37,47.84626,-54.09684
2023-04-30 22:19:00+00:00,284.468,2.07,13.21,47.84626,-54.09684
2023-04-30 22:29:00+00:00,284.2647,1.4,13.21,47.84626,-54.09684
2023-04-30 22:39:00+00:00,284.3064,1.49,13.21,47.84626,-54.09684
2023-04-30 22:49:00+00:00,277.6214,2.32,13.21,47.84626,-54.09684
2023-04-30 22:59:00+00:00,273.793,2.3,13.21,47.84626,-54.09684
2023-04-30 23:09:00+00:00,274.1114,2.28,13.21,47.84626,-54.09684
2023-04-30 23:19:00+00:00,274.0447,2.2,12.97,47.84626,-54.09684
2023-04-30 23:29:00+00:00,263.5731,2.16,12.97,47.84626,-54.09684
2023-04-30 23:39:00+00:00,253.8381,2.1,12.97,47.84626,-54.09684
2023-04-30 23:49:00+00:00,253.4766,1.94,12.97,47.84626,-54.09684
2023-04-30 23:59:00+00:00,253.2363,1.6,12.97,47.84626,-54.09684
